Weather History for Cross City, FL

Change the Weather History Date:

Wednesday, July 17, 2013

  Actual Average Record
Temperature  
Mean Temperature 82 °F 82 °F  
Max Temperature 93 °F 91 °F 97 °F (2002)
Min Temperature 71 °F 72 °F 69 °F (2012)
Degree Days  
Heating Degree Days 0 0  
Month to date heating degree days 0 0  
Since 1 June heating degree days 0 0  
Since 1 July heating degree days 0 0  
Cooling Degree Days 17 17  
Month to date cooling degree days 267 273  
Year to date cooling degree days 1245 1199  
Since 1 June cooling degree days 710 720  
Growing Degree Days 32 (Base 50)    
Moisture  
Dew Point 71 °F    
Average Humidity 73    
Maximum Humidity 100    
Minimum Humidity 49    
Precipitation  
Precipitation 0.06 in 0.18 in 1.14 in (2004)
Month to date precipitation 12.98 2.90  
Year to date precipitation 34.86 25.16  
Sea Level Pressure  
Sea Level Pressure 30.16 in    
Wind  
Wind Speed 3 mph (NE)    
Max Wind Speed 12 mph    
Max Gust Speed 29 mph    
T = Trace of Precipitation, MM = Missing Value Source: NWS Daily Summary

Daily Weather History Graph

Daily Weather History Graph

Search for Another Location

Airport:

Trip Planner

Search our weather history database for the weather conditions in past years. The results will help you decide how hot, cold, wet, or windy it might be!

Date:

Astronomy

Jul. 17, 2013 Rise Set
Actual Time 6:43 AM EDT 8:33 PM EDT
Civil Twilight 6:16 AM EDT 8:59 PM EDT
Nautical Twilight 5:44 AM EDT 9:32 PM EDT
Astronomical Twilight 5:10 AM EDT 10:05 PM EDT
Moon 3:26 PM EDT (7/17) 1:41 AM EDT (7/17)
Length of Visible Light 14h 43m
Length of Day
13h 49m
Waxing Gibbous, 67% of the Moon is Illuminated
Jul 17
Waxing Gibbous
Jul 22
Full
Jul 29
Last Quarter
Aug 6
New
Aug 14
First Quarter

Hourly Weather History & Observations

Time (EDT) Temp. Heat Index Dew Point Humidity Pressure Visibility Wind Dir Wind Speed Gust Speed Precip Events Conditions
12:53 AM 73.9 °F - 71.1 °F 91% 30.19 in - NE 3.5 mph - N/A   Unknown
1:53 AM 73.0 °F - 71.1 °F 93% 30.19 in - Calm Calm - 0.01 in   Unknown
2:53 AM 72.0 °F - 70.0 °F 93% 30.18 in - NE 3.5 mph - 0.01 in   Unknown
3:53 AM 72.0 °F - 70.0 °F 93% 30.17 in - Calm Calm - N/A   Unknown
4:53 AM 72.0 °F - 71.1 °F 97% 30.17 in - Calm Calm - 0.01 in   Unknown
5:53 AM 72.0 °F - 71.1 °F 97% 30.17 in - Calm Calm - 0.01 in   Unknown
6:53 AM 73.0 °F - 72.0 °F 96% 30.18 in - NE 3.5 mph - 0.01 in   Unknown
7:53 AM 73.9 °F - 73.0 °F 97% 30.19 in - ENE 4.6 mph - N/A   Unknown
8:53 AM 75.9 °F - 73.9 °F 94% 30.21 in - ENE 4.6 mph - N/A   Unknown
9:53 AM 80.1 °F 84.5 °F 73.9 °F 81% 30.21 in - ENE 5.8 mph - N/A   Unknown
10:53 AM 84.0 °F 90.2 °F 73.0 °F 69% 30.20 in - Variable 5.8 mph - N/A   Unknown
11:53 AM 84.9 °F 90.7 °F 72.0 °F 65% 30.20 in - NE 5.8 mph - N/A   Unknown
12:53 PM 88.0 °F 93.8 °F 71.1 °F 57% 30.18 in - Variable 5.8 mph - N/A   Unknown
1:53 PM 90.0 °F 96.4 °F 71.1 °F 54% 30.16 in - ENE 5.8 mph 16.1 mph N/A   Unknown
2:53 PM 91.0 °F 96.6 °F 70.0 °F 50% 30.13 in - NE 8.1 mph - N/A   Unknown
3:53 PM 91.9 °F 97.4 °F 70.0 °F 48% 30.11 in - East 6.9 mph - N/A   Unknown
4:53 PM 91.9 °F 96.9 °F 69.1 °F 47% 30.09 in - NE 6.9 mph - N/A   Unknown
5:53 PM 87.1 °F 92.8 °F 71.1 °F 59% 30.08 in - NE 3.5 mph - N/A   Unknown
6:53 PM 88.0 °F 93.8 °F 71.1 °F 57% 30.08 in - NE 5.8 mph - N/A   Unknown
7:53 PM 87.1 °F 90.6 °F 68.0 °F 53% 30.09 in - East 4.6 mph - N/A   Unknown
8:53 PM 82.9 °F 86.5 °F 69.1 °F 63% 30.12 in - Calm Calm - N/A   Unknown
9:53 PM 81.0 °F 84.4 °F 70.0 °F 69% 30.14 in - Calm Calm - 0.01 in   Unknown
10:53 PM 80.1 °F 83.2 °F 70.0 °F 71% 30.14 in - Calm Calm - N/A   Unknown
11:53 PM 77.0 °F - 71.1 °F 82% 30.14 in - Calm Calm - N/A   Unknown